Weather in Mergui

Myanmar     12°26′07″N   98°43′03″E
temp.,
°C
wind,
m/s
gust,
m/s
humid.,
%
clouds,
%
prec.,
mm/h
press.,
hPa
HPBL,
m
11 may, tue
tue1100:30+25e119125 0.4 100844
03:30+24ene119454 0.6 100729
06:30+25ene119357 1.9 100867
09:30+32wnw116279 0.0 1009873
12:30+33wnw325573 0.1 10071700
15:30+32wnw446022 0.1 1005881
18:30+27nnw128011 0.1 100684
21:30+26nne01874 0.7 100859
12 may, wed
wed1200:30+25ne119019 0.7 100724
03:30+25ne11925 0.3 100733
06:30+25ene119373 3.6 100996
09:30+31wnw126684 0.1 1009860
12:30+33wnw325667 0.3 10071662
15:30+32wnw32596 0.3 1004987
18:30+27nw238163 0.3 1006113
21:30+26n118511 0.1 100759
13 may, thu
thu1300:30+26ene1188100 0.1 100652
03:30+25ene11915 0.0 100549
06:30+26ne11875 0.0 100799
09:30+32nw226020 0.0 10081258
12:30+32wnw435890 0.1 10061123
15:30+32nw345982 0.1 10041033
18:30+27nnw127917 0.1 100589
21:30+26nne018435 0.0 100648
14 may, fri
fri1400:30+26ne118710 0.0 100548
03:30+25ene118953 0.0 100545
06:30+26ne11855 0.0 100695
09:30+32nw22599 0.0 10081199
12:30+33wnw445730 0.0 10061422
15:30+32wnw34589 0.0 1004934
18:30+28nnw23785 0.0 1005109
21:30+27n118322 0.0 100753
15 may, sat
sat1500:30+26ene118780 0.0 100647
03:30+25ene119179 0.1 100526
06:30+26ene1187100 0.1 100790
09:30+33nw2259100 0.0 10081090
12:30+34wnw4356100 0.2 10051587
15:30+32wnw236142 0.2 1004976
18:30+28nw1385100 8.9 1005156
21:30